Previsão horária em Alkatovo

Hoje, 27 Janeiro, Quarta-feira

Tempo Temperatura Precipitação Vento Pressão Humidade
00:00 -5°C° 0.1 mm 5 m/s 726 mmHg 92%
01:00 -4°C° 0.1 mm 4 m/s 726 mmHg 92%
02:00 -4°C° 0 mm 4 m/s 725 mmHg 95%
03:00 -4°C° 0.2 mm 4 m/s 725 mmHg 95%
04:00 -4°C° 0.2 mm 4 m/s 725 mmHg 95%
05:00 -4°C° 0.2 mm 4 m/s 725 mmHg 95%
06:00 -4°C° 0.3 mm 3 m/s 725 mmHg 95%
07:00 -3°C° 0.3 mm 2 m/s 725 mmHg 96%
08:00 -1°C° 0.3 mm 1 m/s 725 mmHg 97%
09:00 -3°C° 0.1 mm 2 m/s 726 mmHg 95%
10:00 -2°C° 0.1 mm 3 m/s 726 mmHg 92%
11:00 -3°C° 0.1 mm 4 m/s 727 mmHg 90%
12:00 -2°C° 0 mm 3 m/s 728 mmHg 88%
13:00 -2°C° 0 mm 3 m/s 728 mmHg 86%
14:00 -2°C° 0 mm 3 m/s 729 mmHg 84%
15:00 -2°C° 0 mm 3 m/s 729 mmHg 86%
16:00 -2°C° 0 mm 2 m/s 730 mmHg 88%
17:00 -2°C° 0 mm 2 m/s 730 mmHg 90%
18:00 -3°C° 0 mm 2 m/s 730 mmHg 91%
19:00 -3°C° 0 mm 2 m/s 731 mmHg 93%
20:00 -1°C° 0 mm 1 m/s 731 mmHg 95%
21:00 -3°C° 0.1 mm 2 m/s 731 mmHg 95%
22:00 -3°C° 0.1 mm 2 m/s 732 mmHg 95%
23:00 -2°C° 0.1 mm 2 m/s 732 mmHg 95%

Amanhã, 28 Janeiro, Quinta-feira

Tempo Temperatura Precipitação Vento Pressão Humidade
00:00 -3°C° 0 mm 2 m/s 732 mmHg 95%
01:00 -3°C° 0 mm 2 m/s 732 mmHg 96%
02:00 -4°C° 0 mm 2 m/s 732 mmHg 96%
03:00 -4°C° 0 mm 2 m/s 732 mmHg 97%
04:00 -4°C° 0 mm 2 m/s 733 mmHg 97%
05:00 -5°C° 0 mm 2 m/s 733 mmHg 97%
06:00 -2°C° 0 mm 1 m/s 733 mmHg 96%
07:00 -2°C° 0 mm 1 m/s 733 mmHg 96%
08:00 -2°C° 0 mm 1 m/s 733 mmHg 96%
09:00 -1°C° 0 mm 1 m/s 733 mmHg 94%
10:00 -1°C° 0 mm 1 m/s 733 mmHg 92%
11:00 0°C° 0 mm 1 m/s 733 mmHg 90%
12:00 0°C° 0 mm 1 m/s 733 mmHg 90%
13:00 0°C° 0 mm 1 m/s 732 mmHg 89%
14:00 0°C° 0 mm 1 m/s 732 mmHg 88%
15:00 0°C° 0 mm 1 m/s 732 mmHg 90%
16:00 -1°C° 0 mm 1 m/s 732 mmHg 92%
17:00 -1°C° 0 mm 1 m/s 731 mmHg 94%
18:00 -1°C° 0 mm 1 m/s 731 mmHg 94%
19:00 -4°C° 0 mm 2 m/s 730 mmHg 95%
20:00 -4°C° 0 mm 2 m/s 730 mmHg 95%
21:00 -4°C° 0.5 mm 2 m/s 729 mmHg 96%
22:00 -4°C° 0.5 mm 2 m/s 729 mmHg 96%
23:00 -4°C° 0.5 mm 2 m/s 729 mmHg 96%

Depois de amanhã, 29 Janeiro, Sexta-feira

Tempo Temperatura Precipitação Vento Pressão Humidade
00:00 -3°C° 0.2 mm 2 m/s 728 mmHg 96%
01:00 -3°C° 0.2 mm 2 m/s 727 mmHg 96%
02:00 -3°C° 0.2 mm 2 m/s 727 mmHg 97%
03:00 -2°C° 0.1 mm 2 m/s 726 mmHg 97%
04:00 0°C° 0.1 mm 3 m/s 726 mmHg 97%
05:00 +1°C° 0.1 mm 3 m/s 726 mmHg 98%
06:00 +1°C° 0.1 mm 3 m/s 725 mmHg 97%
07:00 +1°C° 0.1 mm 3 m/s 725 mmHg 97%
08:00 0°C° 0.1 mm 4 m/s 725 mmHg 97%
09:00 -1°C° 0 mm 4 m/s 724 mmHg 94%
10:00 -1°C° 0 mm 4 m/s 724 mmHg 92%
11:00 -1°C° 0 mm 4 m/s 724 mmHg 90%
12:00 -1°C° 0 mm 4 m/s 724 mmHg 89%
13:00 0°C° 0 mm 3 m/s 723 mmHg 87%
14:00 -1°C° 0 mm 3 m/s 723 mmHg 86%
15:00 -1°C° 0 mm 3 m/s 723 mmHg 87%
16:00 -2°C° 0 mm 2 m/s 722 mmHg 87%
17:00 -2°C° 0 mm 2 m/s 722 mmHg 87%
18:00 -3°C° 0 mm 2 m/s 722 mmHg 88%
19:00 -3°C° 0 mm 2 m/s 722 mmHg 90%
20:00 -4°C° 0 mm 2 m/s 721 mmHg 91%
21:00 -5°C° 0 mm 2 m/s 721 mmHg 93%
22:00 -5°C° 0 mm 2 m/s 721 mmHg 94%
23:00 -4°C° 0 mm 1 m/s 721 mmHg 96%

30 Janeiro, Sábado

Tempo Temperatura Precipitação Vento Pressão Humidade
00:00 -4°C° 0.1 mm 1 m/s 721 mmHg 96%
01:00 -3°C° 0.1 mm 1 m/s 720 mmHg 96%
02:00 -3°C° 0.1 mm 1 m/s 720 mmHg 96%
03:00 -3°C° 0.2 mm 1 m/s 720 mmHg 96%
04:00 -3°C° 0.2 mm 1 m/s 720 mmHg 96%
05:00 -3°C° 0.2 mm 1 m/s 719 mmHg 96%
06:00 -3°C° 0.2 mm 1 m/s 719 mmHg 96%
07:00 -3°C° 0.2 mm 1 m/s 719 mmHg 96%
08:00 -3°C° 0.2 mm 1 m/s 719 mmHg 96%
09:00 -5°C° 0.1 mm 2 m/s 720 mmHg 94%
10:00 -4°C° 0.1 mm 2 m/s 720 mmHg 93%
11:00 -5°C° 0.1 mm 3 m/s 720 mmHg 91%
12:00 -5°C° 0.1 mm 3 m/s 720 mmHg 90%
13:00 -5°C° 0.1 mm 3 m/s 721 mmHg 89%
14:00 -5°C° 0.1 mm 3 m/s 721 mmHg 88%
15:00 -5°C° 0.1 mm 3 m/s 721 mmHg 90%
16:00 -6°C° 0.1 mm 3 m/s 721 mmHg 92%
17:00 -6°C° 0.1 mm 3 m/s 722 mmHg 94%
18:00 -6°C° 0.1 mm 3 m/s 722 mmHg 93%
19:00 -7°C° 0.1 mm 3 m/s 722 mmHg 93%
20:00 -7°C° 0.1 mm 3 m/s 722 mmHg 92%
21:00 -7°C° 0 mm 3 m/s 722 mmHg 92%
22:00 -8°C° 0 mm 3 m/s 722 mmHg 92%
23:00 -8°C° 0 mm 3 m/s 722 mmHg 92%

31 Janeiro, Domingo

Tempo Temperatura Precipitação Vento Pressão Humidade
00:00 -9°C° 0 mm 3 m/s 722 mmHg 93%
01:00 -9°C° 0 mm 3 m/s 722 mmHg 93%
02:00 -9°C° 0 mm 2 m/s 722 mmHg 94%
03:00 -9°C° 0 mm 2 m/s 722 mmHg 95%
04:00 -9°C° 0 mm 2 m/s 722 mmHg 95%
05:00 -9°C° 0 mm 2 m/s 722 mmHg 96%
06:00 -9°C° 0 mm 2 m/s 722 mmHg 95%
07:00 -9°C° 0 mm 2 m/s 722 mmHg 95%
08:00 -9°C° 0 mm 2 m/s 722 mmHg 94%
09:00 -9°C° 0 mm 2 m/s 722 mmHg 92%
10:00 -9°C° 0 mm 3 m/s 722 mmHg 90%
11:00 -8°C° 0 mm 3 m/s 722 mmHg 88%
12:00 -8°C° 0 mm 3 m/s 722 mmHg 87%
13:00 -8°C° 0 mm 3 m/s 722 mmHg 86%
14:00 -7°C° 0 mm 3 m/s 722 mmHg 86%
15:00 -7°C° 0 mm 3 m/s 722 mmHg 88%
16:00 -8°C° 0 mm 3 m/s 722 mmHg 90%
17:00 -8°C° 0 mm 3 m/s 722 mmHg 92%
18:00 -8°C° 0.1 mm 3 m/s 723 mmHg 92%
19:00 -7°C° 0.1 mm 3 m/s 723 mmHg 93%
20:00 -8°C° 0.1 mm 4 m/s 723 mmHg 93%
21:00 -8°C° 0.1 mm 4 m/s 723 mmHg 93%
22:00 -8°C° 0.1 mm 4 m/s 724 mmHg 92%
23:00 -8°C° 0.1 mm 4 m/s 724 mmHg 92%

1 Fevereiro, Segunda-feira

Tempo Temperatura Precipitação Vento Pressão Humidade
00:00 -8°C° 0.1 mm 4 m/s 724 mmHg 92%
01:00 -8°C° 0.1 mm 4 m/s 725 mmHg 92%
02:00 -8°C° 0.1 mm 4 m/s 725 mmHg 92%
03:00 -8°C° 0.1 mm 4 m/s 725 mmHg 92%
04:00 -8°C° 0.1 mm 3 m/s 725 mmHg 92%
05:00 -8°C° 0.1 mm 3 m/s 726 mmHg 93%
06:00 -8°C° 0.1 mm 3 m/s 726 mmHg 93%
07:00 -8°C° 0.1 mm 3 m/s 727 mmHg 93%
08:00 -8°C° 0.1 mm 3 m/s 727 mmHg 93%
09:00 -7°C° 0.1 mm 3 m/s 728 mmHg 91%
10:00 -7°C° 0.1 mm 3 m/s 728 mmHg 89%
11:00 -7°C° 0.1 mm 3 m/s 728 mmHg 88%
12:00 -7°C° 0.1 mm 3 m/s 728 mmHg 87%
13:00 -5°C° 0.1 mm 2 m/s 729 mmHg 87%
14:00 -5°C° 0.1 mm 2 m/s 729 mmHg 87%
15:00 -6°C° 0.1 mm 2 m/s 729 mmHg 90%
16:00 -6°C° 0.1 mm 2 m/s 729 mmHg 93%
17:00 -6°C° 0.1 mm 1 m/s 730 mmHg 96%
18:00 -6°C° 0.1 mm 1 m/s 730 mmHg 96%
19:00 -6°C° 0.1 mm 1 m/s 730 mmHg 96%
20:00 -8°C° 0.1 mm 2 m/s 730 mmHg 96%
21:00 -8°C° 0 mm 2 m/s 730 mmHg 96%
22:00 -7°C° 0 mm 1 m/s 731 mmHg 96%
23:00 -8°C° 0 mm 1 m/s 731 mmHg 96%
Mostrar mais

Necessitamos do seu Consentimento

A Meteoprog e os seus Fornecedores de Serviços podem armazenar e aceder a dados pessoais como cookies, identificadores do dispositivo ou outras tecnologias semelhantes existentes no seu dispositivo e processar estes dados para personalizar conteúdos e anúncios, assim como funcionalidades nas redes sociais e análise de tráfego.

  • Armazenar e/ou aceder a informações no seu dispositivo

    Os cookies, identificadores do dispositivo ou outras informações podem ser armazenados ou acedidos no seu dispositivo, para os fins acima indicados.

  • Anúncios e conteúdos personalizados, medição de anúncios e conteúdos, dados sobre o público-alvo e desenvolvimento de produtos

    Os anúncios e os conteúdos podem ser personalizados com base num perfil. Podem ser adicionados dados adicionais para uma maior personalização dos anúncios e dos conteúdos. A eficácia dos anúncios e dos conteúdos pode ser medida. Podem ser obtidas informações sobre o público que visualizou os anúncios e os conteúdos. Estes dados podem ser usados para desenvolver ou melhorar sistemas, softwares ou a experiência do utilizador.

Ao clicar em "Eu concordo”, permitirá o uso de cookies, identificadores do dispositivo e web beacons mencionados ou outras tecnologias semelhantes. As configurações do navegador do seu dispositivo podem ser alteradas.

Para certos fins, podem ser invocados interesses legítimos ao invés de consentimento. Pode ler mais informação sobre este assunto na nossa Política de Privacidade e Cookies.